Location: �couen
(49.0206°N, 2.3831°E)
Time: 22:20:53
(UTC+00:00)

ATLAS 3B R/B - Pass Details

Date: 22 May 2022
Orbit: 976 x 1218 km, 63.8° (Epoch: 20 June)

Event Time Altitude Azimuth Distance (km) Brightness Sun altitude
Rises 20:24:02 0° 311° (NW) 3,877 8.4 -7.1°
Reaches altitude 10° 20:26:59 10° 321° (NW) 2,959 6.7 -7.5°
Maximum altitude 20:33:13 32° 23° (NNE) 1,857 4.2 -8.2°
Drops below altitude 10° 20:39:44 10° 85° (E) 3,102 4.8 -8.9°
Sets 20:42:54 0° 95° (E) 4,090 5.3 -9.3°
